Flag for U.S.A. Weather past 2 weeks in Denver, Colorado, U.S.A.

Now
18 °F

Light snow. Ice fog.


Feels Like: 8 °F
Forecast: 17 / 32 °F
Wind: 8 mph from Northeast

Location: Buckley Air Force Base

Current Time: Mar 3, 2015 at 1:22:11 PM

Latest Report: Mar 3, 2015 at 12:58 PM


Visibility: 1 mi

Pressure: 29.92 "Hg

Humidity: 85%

Dew point: 14 °F

Location of DenverLocation

Historic Weather in Denver — Graph

°F

Denver temperature yesterday

Maximum temperature yesterday: 34 °F (at 1:58 PM)
Minimum temperature yesterday: 13 °F (at 5:58 AM)
Average temperature yesterday: 24 °F

Past Weeks' High & Low Weather Summary

 TemperatureHumidityPressure
High60 °F (Feb 19, 3:58 PM)100% (Feb 21, 12:58 AM)30.58 "Hg (Feb 21, 12:58 AM)
Low0 °F (Feb 27, 4:58 AM)21% (Feb 19, 3:58 PM)29.57 "Hg (Mar 2, 11:58 PM)
Average23 °F73%30.13 "Hg
* Reported Feb 16 11:58 AM — Mar 3 11:58 AM, Denver, Weather by CustomWeather, © 2015

Note: Actual official high and low records may vary slightly from our data, if they occured in-between our weather recording intervals... More about our weather records

Advertising

Denver weather history for previous 24 hours

 ConditionsComfort  
Time TempWeatherWind HumidityBarometerVisibility
11:58 AM
Tue, Mar 3
19 °FLight snow. Ice fog.13 mph83%29.91 "Hg4 mi
10:58 AM19 °FLight snow. Ice fog.12 mph85%29.97 "Hg4 mi
9:58 AM21 °FLight snow. Ice fog.13 mph86%29.98 "Hg4 mi
8:58 AM22 °FLight snow. Ice fog.14 mph87%29.97 "Hg4 mi
7:58 AM24 °FOvercast.12 mph89%29.92 "Hg10 mi
6:58 AM23 °FPartly sunny.20 mph93%29.87 "Hg10 mi
5:58 AM33 °FPassing clouds.7 mph43%29.74 "Hg10 mi
4:58 AM32 °FPassing clouds.6 mph47%29.68 "Hg10 mi
3:58 AM34 °FPassing clouds.7 mph44%29.65 "Hg10 mi
2:58 AM33 °FPassing clouds.8 mph55%29.63 "Hg10 mi
1:58 AM32 °FPassing clouds.6 mph72%29.61 "Hg10 mi
12:58 AM32 °FPassing clouds.7 mph74%29.60 "Hg10 mi
11:58 PM
Mon, Mar 2
33 °FPassing clouds.17 mph76%29.57 "Hg10 mi
10:58 PM29 °FPartly cloudy.9 mph82%29.65 "Hg8 mi
9:58 PM29 °FIce fog.3 mph80%29.64 "Hg6 mi
8:58 PM26 °FPassing clouds.7 mph84%29.62 "Hg7 mi
7:58 PM28 °FPassing clouds.6 mph81%29.62 "Hg7 mi
6:58 PM27 °FIce fog.6 mph86%29.65 "Hg5 mi
5:58 PM28 °FIce fog.5 mph82%29.70 "Hg5 mi
4:58 PM32 °FPartly sunny.2 mph67%29.72 "Hg7 mi
3:58 PM32 °FPartly sunny.5 mph68%29.73 "Hg7 mi
2:58 PM34 °FPartly sunny.2 mph63%29.77 "Hg7 mi
1:58 PM34 °FPartly sunny.3 mph59%29.80 "Hg7 mi
Weather by CustomWeather, © 2015

See weather overviewHow to use our weather pages